SCP
0 0 0 0 0 0 0 0 0 0 0 0 -0 -0 0 -0 -0 -0 -0 0 0 0 0 0 0 0 0 0 0 0 0 0 0 0 0 0 0 0 0 0 0 0 0
0 0 0 0 0 0 0 0 0 0 0 0 0 0 -0 -0 0 -0 -0 -0 0 0 0 0 0 0 0 0 0 0 0 0 0 0 0 0 0 0 0 0 0 0 0
0 0 0 0 0 0 0 0 0 0 0 0 0 0 0 -0 0 0 -0 0 -0 0 0 0 0 0 0 0 0 0 0 0 0 0 0 0 0 0 0 0 0 0 0
0 0 0 0 0 0 0 0 0 0 0 0 0 0 0 0 -0 -0 -0 0 0 0 0 0 0 0 0 0 0 0 0 0 0 0 0 0 0 0 0 0 0 0 0
0 -0 -0 -0 0 0 0 0 0 0 0 0 0 0 0 0 0 -0 0 0 0 0 0 0 0 0 0 0 0 0 0 0 0 0 0 0 0 0 0 0 0 0 0
-0 -0 -0 0 0 0 0 0 0 0 0 0 0 0 0 0 0 -0 0 0 0 0 0 0 0 0 0 0 0 0 0 0 0 0 0 0 0 0 0 0 0 0 0
-0 -0 0 -0 0 0 0 0 0 0 0 0 0 0 0 0 0 0 -0 0 0 0 0 0 0 0 0 0 0 0 0 0 0 0 0 0 0 0 0 0 0 0 0
0 0 0 0 0 0 0 0 0 0 0 0 0 0 0 0 0 0 0 0 0 0 0 0 0 0 0 0 0 0 0 0 0 0 0 0 0 0 0 0 0 0 0
0 0 0 0 0 0 0 0 0 0 0 0 0 0 0 0 0 0 0 0 0 0 0 0 0 0 0 0 0 0 0 0 0 0 0 0 0 0 0 0 0 0 0
0 0 0 0 0 0 0 0 0 0 0 0 0 0 0 0 0 0 0 0 0 0 0 0 0 0 0 0 0 0 0 0 0 0 0 0 0 0 0 0 0 0 0
0 0 0 0 0 -0 -0 -0 -0 0 0 0 0 0 0 0 0 0 0 0 0 0 0 0 0 0 0 0 0 0 0 0 0 0 0 0 0 0 0 0 0 0 0
0 0 0 0 -0 -0 0 -0 0 0 0 0 0 0 0 0 0 0 0 0 0 0 0 0 0 0 0 0 0 0 0 0 0 0 0 0 0 0 0 0 0 0 0
0 0 0 0 -0 0 0 0 0 -0 -0 0 0 0 0 0 0 0 0 0 0 0 0 0 0 0 0 0 0 0 0 0 0 0 0 0 0 0 0 0 0 0 0
0 0 0 0 0 0 0 -0 0 0 0 0 0 0 0 0 0 0 0 0 0 0 0 0 0 0 0 0 0 0 0 0 0 0 0 0 0 0 0 0 0 0 0
0 0 0 0 0 0 0 0 0 0 0 0 0 0 0 0 0 0 0 0 0 0 0 0 0 0 0 0 0 0 0 0 0 0 0 0 0 0 0 0 0 0 0
0 0 0 0 0 0 0 0 0 -0 -0 -0 -0 0 0 0 0 0 0 0 0 0 -0 0 0 0 0 0 0 0 0 0 0 0 0 0 0 0 0 0 0 0 0
0 0 0 0 0 0 0 0 0 0 0 0 -0 0 0 0 0 0 0 0 -0 -0 0 0 0 0 0 0 0 0 0 0 0 0 0 0 0 0 0 0 0 0 0
0 0 0 0 0 0 0 0 0 0 0 0 0 0 0 0 0 0 0 -0 -0 0 0 0 0 0 0 0 0 0 0 0 0 0 0 0 0 0 0 0 0 0 0
0 0 0 0 0 0 0 0 0 0 0 0 0 0 0 0 0 -0 0 0 0 0 0 0 0 0 0 0 0 0 0 0 0 0 0 0 0 0 0 0 0 0 0
0 0 0 0 0 0 0 0 -0 -0 0 0 0 0 0 0 0 0 0 0 0 0 0 0 0 0 0 0 0 0 0 0 0 0 0 0 0 0 0 0 0 0 0
0 0 0 0 0 0 0 0 0 0 0 0 0 0 0 0 0 0 0 0 0 0 0 0 0 0 0 0 0 0 0 0 0 0 0 0 0 0 0 0 0 0 0
-0 -0 0 0 0 0 0 0 0 0 0 0 0 0 0 0 0 0 0 0 0 0 0 0 0 0 0 0 0 0 0 0 0 0 0 0 0 0 0 0 0 0 0
0 -0 -0 0 0 0 0 0 0 0 0 0 0 0 0 0 0 0 0 0 0 0 0 0 0 0 0 0 0 0 0 0 0 0 0 0 0 0 0 0 0 0 0
-0 0 -0 -0 0 0 0 -0 0 0 0 0 -0 0 0 0 0 0 0 0 0 0 0 0 0 0 0 0 0 0 0 0 0 0 0 0 0 0 0 0 0 0 0
-0 -0 0 0 0 0 0 0 0 0 0 0 -0 -0 -0 0 0 0 0 0 0 0 0 0 0 0 0 0 0 0 0 0 0 0 0 0 0 0 0 0 0 0 0
0 0 -0 -0 -0 0 -0 -0 0 0 -0 -0 0 0 0 -0 -0 0 0 -0 -0 -0 -0 -0 -0 -0 -0 -0 -0 0 0 0 0 0 0 0 0 0 0 0 0 0 0
Wind_Speed_500mb
33 10 10 19 29 39 45 49 52 56 58 59 59 61 61 58 66 69 74 77 76 68 73 67 81 81 78 109 83 109 120 106 111 103 106 107 105 105 96 84 81 72 71
26 23 22 30 38 46 52 59 62 62 61 58 58 55 61 67 66 64 54 53 60 57 54 75 69 78 65 97 123 78 103 107 116 98 94 55 72 85 88 88 80 72 69
21 28 38 45 48 53 55 59 65 66 70 70 64 69 68 71 75 77 77 79 71 69 61 49 63 77 73 75 76 75 106 106 105 90 69 28 21 68 63 66 75 72 70
28 41 48 51 50 54 57 62 66 65 64 62 62 63 68 69 67 65 72 77 75 76 72 70 56 74 78 73 86 95 85 92 100 80 74 65 61 61 38 65 61 73 77
41 50 52 54 55 55 57 59 63 65 64 63 65 66 71 79 69 70 80 65 67 69 69 62 65 73 76 75 84 86 99 121 98 82 98 52 60 75 63 62 67 70 80
51 52 52 55 60 59 58 61 65 68 65 69 71 68 72 78 70 73 68 72 73 70 73 67 60 83 83 82 90 82 99 107 109 106 100 95 58 59 69 65 86 82 72
53 54 58 61 61 62 64 63 63 68 67 66 73 77 84 79 85 73 75 77 72 77 76 67 63 81 87 84 88 86 91 98 100 106 95 90 87 87 72 71 84 72 71
54 56 59 61 63 63 66 70 76 84 82 82 84 83 84 93 90 86 78 78 74 79 79 70 69 83 87 85 84 81 101 99 100 92 95 72 78 87 87 92 87 68 61
58 63 68 78 73 73 71 70 75 80 80 80 80 80 82 86 94 88 93 81 90 74 75 71 73 86 93 88 89 84 93 88 86 85 78 73 79 90 90 90 94 93 59
64 73 75 74 73 71 71 71 71 76 81 82 79 84 82 85 91 88 88 87 84 91 85 74 71 88 98 92 90 88 89 92 85 81 79 81 78 81 92 98 96 98 81
62 67 72 73 75 73 73 73 72 70 72 74 78 82 83 86 91 90 90 83 83 87 94 89 77 95 93 95 92 94 96 87 81 81 79 78 78 82 92 94 91 96 81
63 69 75 77 82 82 80 77 72 67 63 66 72 79 81 81 81 85 90 82 86 85 88 84 83 97 97 101 97 96 101 91 86 84 80 76 78 83 90 76 81 87 96
64 72 75 78 83 88 86 82 74 69 65 59 62 69 78 80 84 85 92 95 72 95 88 82 87 99 112 107 106 106 93 94 83 83 82 79 85 89 103 91 83 83 78
60 69 76 80 84 91 92 87 81 76 63 52 49 57 66 75 79 87 89 103 76 84 89 85 96 94 107 108 112 106 96 91 84 83 83 80 91 98 96 99 100 84 76
66 73 77 80 86 94 95 92 85 76 62 54 39 42 65 71 73 77 85 103 78 75 81 86 99 105 106 108 104 99 88 88 81 80 90 85 89 112 95 95 91 72 70
69 75 78 79 82 88 94 97 91 80 75 71 45 0 28 41 55 67 76 94 74 78 89 93 105 103 105 98 93 92 86 80 73 75 74 70 79 105 100 91 76 75 78
66 73 75 77 77 85 92 101 93 86 85 83 70 36 29 33 33 44 53 69 78 76 110 106 110 95 81 74 86 86 81 72 76 72 70 71 81 109 109 94 86 71 60
61 66 70 72 76 83 87 101 100 93 94 89 92 69 58 48 50 53 50 59 60 92 102 85 74 76 68 66 65 63 65 72 69 67 65 66 80 106 112 108 109 96 74
52 58 60 63 71 78 85 94 98 102 103 102 104 95 82 62 59 58 59 69 92 81 98 98 94 98 78 57 59 60 57 61 63 58 53 52 55 67 90 108 105 102 96
47 56 59 62 66 71 80 87 89 101 107 103 100 91 93 110 99 93 99 106 108 104 109 94 79 81 68 59 58 58 61 52 57 48 40 44 44 48 52 69 67 63 74
44 49 54 62 65 68 75 82 82 93 93 90 89 106 114 109 105 108 111 108 119 127 120 117 101 93 76 61 49 52 45 41 49 53 39 38 34 38 46 55 58 50 53
40 46 53 59 63 67 72 78 85 86 90 92 94 99 102 99 99 99 102 109 105 100 113 110 105 96 86 74 64 56 49 40 39 42 33 31 32 30 37 43 43 42 40
35 41 47 52 58 64 70 75 78 79 85 87 96 97 96 96 100 102 103 100 98 98 91 90 90 87 72 69 61 56 55 47 49 42 36 26 23 26 32 32 31 31 36
31 36 41 47 55 61 63 66 66 67 74 81 85 87 94 97 98 100 99 96 92 87 87 84 79 71 66 61 49 43 40 38 37 37 38 33 29 27 27 27 25 27 26
25 30 35 42 47 53 58 61 63 63 67 70 75 79 81 84 88 91 88 88 83 79 80 75 69 66 67 59 49 44 39 33 29 26 28 27 25 26 27 25 25 24 25
23 24 29 33 38 43 50 56 59 61 63 67 70 69 69 70 72 72 72 75 73 70 71 69 66 62 53 45 43 40 37 33 29 25 28 24 23 23 24 22 23 24 25
Wind_Direction_500mb
292 67 358 319 307 300 292 287 285 280 279 278 273 271 264 273 275 271 266 264 264 261 250 247 245 239 231 237 234 216 207 203 204 203 196 199 203 199 200 205 211 206 209
357 359 332 313 301 292 288 285 281 279 278 276 273 269 271 268 260 262 263 270 267 264 266 246 242 242 245 219 220 208 184 196 203 192 187 164 179 186 188 197 201 202 206
355 335 320 306 299 295 291 287 282 278 273 271 271 264 260 261 260 257 262 258 255 259 248 248 250 245 243 229 218 205 200 206 194 201 194 171 164 181 193 186 190 190 197
337 327 316 308 304 298 294 288 287 285 283 281 277 274 268 265 261 262 266 265 265 261 258 243 244 245 240 235 222 221 215 207 190 192 195 202 201 174 185 184 185 189 196
332 322 313 309 305 301 298 293 289 286 283 279 276 273 268 260 264 262 255 255 260 260 261 243 237 237 235 231 222 221 218 226 229 210 217 202 187 193 183 192 183 186 199
321 316 312 311 306 302 297 292 290 286 282 275 270 266 267 261 263 258 253 256 248 250 252 236 235 234 234 228 227 222 221 218 219 226 226 223 209 205 194 204 193 187 190
322 319 318 315 309 304 301 296 292 287 283 277 271 264 258 262 257 257 256 244 252 246 244 240 238 230 228 227 225 221 228 215 214 222 219 223 230 222 216 210 196 190 188
321 320 315 312 310 307 301 297 290 284 282 277 272 264 261 257 255 252 252 250 241 243 247 244 234 229 225 225 225 218 229 221 221 225 225 236 232 221 223 233 211 185 200
326 321 320 319 317 314 309 304 299 294 288 282 277 269 262 256 253 253 248 248 234 241 248 241 230 226 224 224 223 213 227 221 219 221 227 230 227 232 230 230 226 210 184
324 325 326 326 324 321 319 316 309 300 292 284 274 269 263 254 250 251 251 240 241 233 232 236 236 222 216 221 222 228 218 218 217 222 218 221 220 229 228 227 224 211 211
322 322 323 329 331 330 328 323 317 307 294 283 275 270 263 257 247 244 247 235 234 237 235 235 238 222 214 217 220 220 218 211 214 216 218 218 223 224 226 225 221 212 199
317 320 330 334 338 337 336 331 324 313 303 290 279 270 263 255 247 239 238 226 233 227 234 234 234 220 216 219 218 211 213 209 210 214 213 213 216 216 207 202 202 205 199
326 332 336 339 342 342 341 336 332 326 317 297 282 269 261 253 244 235 231 217 225 226 226 229 225 211 215 216 214 215 207 208 212 211 209 207 211 207 198 186 183 188 189
331 337 341 345 345 348 346 345 343 338 329 311 291 268 253 244 238 232 228 214 215 225 225 228 212 217 212 219 210 213 210 205 208 211 209 208 206 198 191 196 194 191 191
341 345 345 349 351 350 351 356 352 348 347 341 318 260 246 239 235 228 223 215 215 220 224 223 211 212 210 211 208 209 202 207 205 210 207 208 205 195 190 184 180 182 183
346 349 353 357 355 354 355 360 357 358 6 2 9 214 235 221 222 220 217 214 216 220 213 202 204 200 208 207 214 204 200 202 202 200 203 208 214 198 189 184 185 190 190
350 350 354 359 358 359 3 5 5 11 18 17 34 90 147 179 194 207 214 211 216 203 201 206 199 193 205 211 204 202 193 189 195 192 192 196 199 196 189 177 177 191 203
352 353 358 0 8 5 14 13 19 25 22 23 37 67 88 122 167 178 184 191 195 198 192 177 170 164 165 178 168 181 178 178 178 180 186 190 197 199 197 187 188 197 203
353 355 3 6 15 12 20 20 19 28 32 37 43 51 60 91 108 122 135 145 165 149 151 155 154 148 153 171 165 178 173 162 166 173 186 185 190 194 206 210 205 205 210
360 359 6 14 19 20 25 27 22 32 37 42 48 47 59 80 78 85 96 106 112 108 127 128 122 129 130 143 157 153 150 161 159 167 172 184 193 192 197 199 198 202 217
1 4 8 16 20 23 28 31 28 33 41 47 50 58 67 71 76 84 87 93 98 99 101 108 105 108 116 125 131 145 150 155 154 144 151 164 174 185 192 199 201 203 209
359 6 10 17 21 26 31 31 32 34 41 46 51 58 64 69 73 78 83 85 88 89 89 99 98 99 99 106 111 119 125 136 136 137 156 146 147 162 181 187 196 205 202
354 2 10 14 21 27 31 36 33 34 41 43 50 56 63 64 68 71 73 76 82 87 86 86 86 90 96 98 102 105 108 109 116 117 118 130 155 170 165 172 181 203 199
347 357 4 15 19 25 31 37 41 40 43 45 47 51 56 61 63 67 70 71 74 76 79 79 81 87 89 89 90 94 99 101 103 105 109 110 119 132 136 146 158 167 176
334 351 1 10 18 21 26 33 39 47 49 52 53 51 51 54 58 60 60 68 65 69 77 78 76 76 76 74 80 85 91 97 106 117 117 123 125 126 125 135 140 146 153
315 339 356 5 13 21 23 27 36 41 48 51 52 54 56 55 58 60 64 66 66 68 70 71 71 76 79 81 82 85 87 90 96 115 118 131 140 136 139 148 152 152 153
Wind_Speed_850mb
33 10 10 19 29 39 45 49 52 56 58 59 59 61 61 58 66 69 74 77 76 68 73 67 81 81 78 109 83 109 120 106 111 103 106 107 105 105 96 84 81 72 71
26 23 22 30 38 46 52 59 62 62 61 58 58 55 61 67 66 64 54 53 60 57 54 75 69 78 65 97 123 78 103 107 116 98 94 55 72 85 88 88 80 72 69
21 28 38 45 48 53 55 59 65 66 70 70 64 69 68 71 75 77 77 79 71 69 61 49 63 77 73 75 76 75 106 106 105 90 69 28 21 68 63 66 75 72 70
28 41 48 51 50 54 57 62 66 65 64 62 62 63 68 69 67 65 72 77 75 76 72 70 56 74 78 73 86 95 85 92 100 80 74 65 61 61 38 65 61 73 77
41 50 52 54 55 55 57 59 63 65 64 63 65 66 71 79 69 70 80 65 67 69 69 62 65 73 76 75 84 86 99 121 98 82 98 52 60 75 63 62 67 70 80
51 52 52 55 60 59 58 61 65 68 65 69 71 68 72 78 70 73 68 72 73 70 73 67 60 83 83 82 90 82 99 107 109 106 100 95 58 59 69 65 86 82 72
53 54 58 61 61 62 64 63 63 68 67 66 73 77 84 79 85 73 75 77 72 77 76 67 63 81 87 84 88 86 91 98 100 106 95 90 87 87 72 71 84 72 71
54 56 59 61 63 63 66 70 76 84 82 82 84 83 84 93 90 86 78 78 74 79 79 70 69 83 87 85 84 81 101 99 100 92 95 72 78 87 87 92 87 68 61
58 63 68 78 73 73 71 70 75 80 80 80 80 80 82 86 94 88 93 81 90 74 75 71 73 86 93 88 89 84 93 88 86 85 78 73 79 90 90 90 94 93 59
64 73 75 74 73 71 71 71 71 76 81 82 79 84 82 85 91 88 88 87 84 91 85 74 71 88 98 92 90 88 89 92 85 81 79 81 78 81 92 98 96 98 81
62 67 72 73 75 73 73 73 72 70 72 74 78 82 83 86 91 90 90 83 83 87 94 89 77 95 93 95 92 94 96 87 81 81 79 78 78 82 92 94 91 96 81
63 69 75 77 82 82 80 77 72 67 63 66 72 79 81 81 81 85 90 82 86 85 88 84 83 97 97 101 97 96 101 91 86 84 80 76 78 83 90 76 81 87 96
64 72 75 78 83 88 86 82 74 69 65 59 62 69 78 80 84 85 92 95 72 95 88 82 87 99 112 107 106 106 93 94 83 83 82 79 85 89 103 91 83 83 78
60 69 76 80 84 91 92 87 81 76 63 52 49 57 66 75 79 87 89 103 76 84 89 85 96 94 107 108 112 106 96 91 84 83 83 80 91 98 96 99 100 84 76
66 73 77 80 86 94 95 92 85 76 62 54 39 42 65 71 73 77 85 103 78 75 81 86 99 105 106 108 104 99 88 88 81 80 90 85 89 112 95 95 91 72 70
69 75 78 79 82 88 94 97 91 80 75 71 45 0 28 41 55 67 76 94 74 78 89 93 105 103 105 98 93 92 86 80 73 75 74 70 79 105 100 91 76 75 78
66 73 75 77 77 85 92 101 93 86 85 83 70 36 29 33 33 44 53 69 78 76 110 106 110 95 81 74 86 86 81 72 76 72 70 71 81 109 109 94 86 71 60
61 66 70 72 76 83 87 101 100 93 94 89 92 69 58 48 50 53 50 59 60 92 102 85 74 76 68 66 65 63 65 72 69 67 65 66 80 106 112 108 109 96 74
52 58 60 63 71 78 85 94 98 102 103 102 104 95 82 62 59 58 59 69 92 81 98 98 94 98 78 57 59 60 57 61 63 58 53 52 55 67 90 108 105 102 96
47 56 59 62 66 71 80 87 89 101 107 103 100 91 93 110 99 93 99 106 108 104 109 94 79 81 68 59 58 58 61 52 57 48 40 44 44 48 52 69 67 63 74
44 49 54 62 65 68 75 82 82 93 93 90 89 106 114 109 105 108 111 108 119 127 120 117 101 93 76 61 49 52 45 41 49 53 39 38 34 38 46 55 58 50 53
40 46 53 59 63 67 72 78 85 86 90 92 94 99 102 99 99 99 102 109 105 100 113 110 105 96 86 74 64 56 49 40 39 42 33 31 32 30 37 43 43 42 40
35 41 47 52 58 64 70 75 78 79 85 87 96 97 96 96 100 102 103 100 98 98 91 90 90 87 72 69 61 56 55 47 49 42 36 26 23 26 32 32 31 31 36
31 36 41 47 55 61 63 66 66 67 74 81 85 87 94 97 98 100 99 96 92 87 87 84 79 71 66 61 49 43 40 38 37 37 38 33 29 27 27 27 25 27 26
25 30 35 42 47 53 58 61 63 63 67 70 75 79 81 84 88 91 88 88 83 79 80 75 69 66 67 59 49 44 39 33 29 26 28 27 25 26 27 25 25 24 25
23 24 29 33 38 43 50 56 59 61 63 67 70 69 69 70 72 72 72 75 73 70 71 69 66 62 53 45 43 40 37 33 29 25 28 24 23 23 24 22 23 24 25
Wind_Direction_850mb
292 67 358 319 307 300 292 287 285 280 279 278 273 271 264 273 275 271 266 264 264 261 250 247 245 239 231 237 234 216 207 203 204 203 196 199 203 199 200 205 211 206 209
357 359 332 313 301 292 288 285 281 279 278 276 273 269 271 268 260 262 263 270 267 264 266 246 242 242 245 219 220 208 184 196 203 192 187 164 179 186 188 197 201 202 206
355 335 320 306 299 295 291 287 282 278 273 271 271 264 260 261 260 257 262 258 255 259 248 248 250 245 243 229 218 205 200 206 194 201 194 171 164 181 193 186 190 190 197
337 327 316 308 304 298 294 288 287 285 283 281 277 274 268 265 261 262 266 265 265 261 258 243 244 245 240 235 222 221 215 207 190 192 195 202 201 174 185 184 185 189 196
332 322 313 309 305 301 298 293 289 286 283 279 276 273 268 260 264 262 255 255 260 260 261 243 237 237 235 231 222 221 218 226 229 210 217 202 187 193 183 192 183 186 199
321 316 312 311 306 302 297 292 290 286 282 275 270 266 267 261 263 258 253 256 248 250 252 236 235 234 234 228 227 222 221 218 219 226 226 223 209 205 194 204 193 187 190
322 319 318 315 309 304 301 296 292 287 283 277 271 264 258 262 257 257 256 244 252 246 244 240 238 230 228 227 225 221 228 215 214 222 219 223 230 222 216 210 196 190 188
321 320 315 312 310 307 301 297 290 284 282 277 272 264 261 257 255 252 252 250 241 243 247 244 234 229 225 225 225 218 229 221 221 225 225 236 232 221 223 233 211 185 200
326 321 320 319 317 314 309 304 299 294 288 282 277 269 262 256 253 253 248 248 234 241 248 241 230 226 224 224 223 213 227 221 219 221 227 230 227 232 230 230 226 210 184
324 325 326 326 324 321 319 316 309 300 292 284 274 269 263 254 250 251 251 240 241 233 232 236 236 222 216 221 222 228 218 218 217 222 218 221 220 229 228 227 224 211 211
322 322 323 329 331 330 328 323 317 307 294 283 275 270 263 257 247 244 247 235 234 237 235 235 238 222 214 217 220 220 218 211 214 216 218 218 223 224 226 225 221 212 199
317 320 330 334 338 337 336 331 324 313 303 290 279 270 263 255 247 239 238 226 233 227 234 234 234 220 216 219 218 211 213 209 210 214 213 213 216 216 207 202 202 205 199
326 332 336 339 342 342 341 336 332 326 317 297 282 269 261 253 244 235 231 217 225 226 226 229 225 211 215 216 214 215 207 208 212 211 209 207 211 207 198 186 183 188 189
331 337 341 345 345 348 346 345 343 338 329 311 291 268 253 244 238 232 228 214 215 225 225 228 212 217 212 219 210 213 210 205 208 211 209 208 206 198 191 196 194 191 191
341 345 345 349 351 350 351 356 352 348 347 341 318 260 246 239 235 228 223 215 215 220 224 223 211 212 210 211 208 209 202 207 205 210 207 208 205 195 190 184 180 182 183
346 349 353 357 355 354 355 360 357 358 6 2 9 214 235 221 222 220 217 214 216 220 213 202 204 200 208 207 214 204 200 202 202 200 203 208 214 198 189 184 185 190 190
350 350 354 359 358 359 3 5 5 11 18 17 34 90 147 179 194 207 214 211 216 203 201 206 199 193 205 211 204 202 193 189 195 192 192 196 199 196 189 177 177 191 203
352 353 358 0 8 5 14 13 19 25 22 23 37 67 88 122 167 178 184 191 195 198 192 177 170 164 165 178 168 181 178 178 178 180 186 190 197 199 197 187 188 197 203
353 355 3 6 15 12 20 20 19 28 32 37 43 51 60 91 108 122 135 145 165 149 151 155 154 148 153 171 165 178 173 162 166 173 186 185 190 194 206 210 205 205 210
360 359 6 14 19 20 25 27 22 32 37 42 48 47 59 80 78 85 96 106 112 108 127 128 122 129 130 143 157 153 150 161 159 167 172 184 193 192 197 199 198 202 217
1 4 8 16 20 23 28 31 28 33 41 47 50 58 67 71 76 84 87 93 98 99 101 108 105 108 116 125 131 145 150 155 154 144 151 164 174 185 192 199 201 203 209
359 6 10 17 21 26 31 31 32 34 41 46 51 58 64 69 73 78 83 85 88 89 89 99 98 99 99 106 111 119 125 136 136 137 156 146 147 162 181 187 196 205 202
354 2 10 14 21 27 31 36 33 34 41 43 50 56 63 64 68 71 73 76 82 87 86 86 86 90 96 98 102 105 108 109 116 117 118 130 155 170 165 172 181 203 199
347 357 4 15 19 25 31 37 41 40 43 45 47 51 56 61 63 67 70 71 74 76 79 79 81 87 89 89 90 94 99 101 103 105 109 110 119 132 136 146 158 167 176
334 351 1 10 18 21 26 33 39 47 49 52 53 51 51 54 58 60 60 68 65 69 77 78 76 76 76 74 80 85 91 97 106 117 117 123 125 126 125 135 140 146 153
315 339 356 5 13 21 23 27 36 41 48 51 52 54 56 55 58 60 64 66 66 68 70 71 71 76 79 81 82 85 87 90 96 115 118 131 140 136 139 148 152 152 153